Dewpoint
73 73 73 69 57 54 50 51 52 51 52 55 55 55 55 59 55 51 66 68 69 69 70 72 73 72 71 71 72 72 71 71 71 71 71 71 71 71 71 71 71 71 72 72 71 71 71 70 71
73 72 69 63 52 48 49 55 51 55 54 56 57 59 58 59 63 65 66 68 68 69 70 71 73 72 71 71 72 72 72 71 72 72 71 71 72 72 72 72 71 71 72 72 71 71 71 71 71
72 67 60 55 52 49 49 55 54 56 56 54 57 60 60 61 64 64 67 68 68 69 69 70 73 72 71 71 71 72 73 71 71 72 72 72 72 72 72 73 72 72 72 71 72 71 71 70 70
67 66 61 53 51 54 54 55 56 52 55 58 58 58 62 65 64 66 68 68 68 68 67 72 72 71 71 71 73 72 72 70 70 72 72 72 72 72 72 72 72 72 72 72 72 71 70 70 70
66 61 54 51 51 54 57 58 58 57 57 57 58 58 60 65 66 67 68 68 67 67 67 70 73 72 71 72 73 72 71 72 69 70 72 72 72 72 72 70 71 72 71 71 71 71 71 72 72
59 59 49 49 50 52 56 58 53 57 58 58 57 57 61 66 67 67 67 68 69 67 66 68 73 74 71 72 72 73 73 72 72 71 70 70 71 71 71 72 72 71 71 71 71 71 72 71 71
54 52 49 52 52 52 55 59 58 57 56 56 57 56 63 66 67 68 67 68 69 68 66 67 70 73 71 73 72 72 72 72 73 72 72 72 72 71 71 71 71 71 71 72 71 71 71 72 71
57 51 49 52 52 52 55 56 58 56 56 58 57 57 60 65 68 68 68 68 69 68 66 67 69 71 71 69 72 72 73 72 72 71 72 71 71 71 71 71 71 71 70 70 71 72 71 71 72
55 49 46 49 51 53 56 56 57 59 56 58 59 58 61 66 67 66 67 68 68 67 66 66 69 71 73 71 73 72 73 73 72 72 72 72 71 72 72 71 72 71 71 71 70 70 70 71 72
51 49 47 51 52 53 55 56 56 56 55 57 60 62 64 65 65 64 64 65 65 66 67 68 68 69 71 71 72 72 72 73 73 71 71 72 72 73 72 71 69 69 69 70 70 71 71 71 72
52 48 50 52 54 54 54 55 56 56 55 57 58 61 63 64 63 62 62 61 62 64 65 68 68 70 71 71 70 72 72 72 71 72 71 72 71 69 67 67 66 68 69 71 69 68 69 70 69
48 51 49 52 52 52 55 56 56 55 56 57 59 60 62 62 61 61 61 61 61 63 65 66 67 70 70 71 71 73 72 72 71 71 72 71 69 66 65 65 66 66 65 65 66 67 68 70 69
49 50 51 53 51 51 52 54 54 56 58 59 59 61 61 60 58 58 58 58 60 61 63 64 68 71 71 72 72 72 72 72 71 71 71 70 68 67 64 63 64 64 63 63 67 67 67 68 67
51 51 50 52 50 49 54 56 55 58 58 58 60 60 60 61 60 60 58 58 61 61 62 64 68 70 71 72 72 71 71 71 73 72 72 72 70 67 65 65 64 63 65 66 65 67 68 67 67
51 47 48 50 50 47 53 51 53 58 58 58 59 60 60 61 61 61 60 58 62 64 66 66 68 69 71 71 72 71 71 71 71 71 72 71 71 69 69 67 65 64 64 67 67 67 68 69 69
47 45 42 47 50 48 50 46 56 58 59 58 58 59 61 61 61 62 62 62 63 65 67 68 67 67 69 70 70 70 70 70 71 71 70 70 71 71 70 68 66 65 66 67 67 66 67 66 67
44 36 43 43 50 47 48 47 54 57 57 57 59 58 59 60 61 62 62 63 63 65 66 68 68 67 69 70 70 70 70 70 70 71 71 70 70 71 71 70 69 68 67 67 68 67 68 66 67
33 35 42 42 46 48 46 47 53 56 55 55 57 58 59 58 59 61 62 62 63 64 66 67 68 69 69 69 69 68 68 69 70 71 71 71 71 70 71 70 69 68 67 68 67 68 69 68 68
39 38 41 44 47 46 46 46 51 55 55 54 56 56 56 57 58 59 60 61 61 63 65 66 67 68 69 68 67 67 67 68 70 72 72 71 71 71 70 69 69 69 68 69 69 69 69 68 69
39 39 40 45 47 46 48 46 49 54 55 55 55 55 55 56 56 57 58 58 58 60 63 65 66 67 68 67 67 67 68 69 70 71 71 71 71 70 70 69 68 68 68 69 69 69 68 68 69
41 39 39 40 48 50 49 46 48 50 54 54 55 55 54 54 55 56 57 56 57 57 60 62 65 66 67 67 69 70 70 69 69 70 70 71 71 71 70 70 70 70 70 69 70 70 69 67 68
34 40 41 44 42 36 48 35 44 48 50 53 52 54 54 55 55 55 55 56 56 56 58 61 64 65 66 68 68 69 65 65 66 68 70 70 71 71 71 71 71 71 71 71 70 70 69 68 66
37 43 43 44 41 41 42 39 39 47 45 49 50 50 51 54 55 55 55 55 56 57 58 60 64 66 68 69 69 66 63 64 65 66 66 68 70 71 71 72 72 72 72 71 70 70 70 68 67
41 40 39 40 38 32 38 41 33 40 43 45 47 49 50 53 56 56 57 57 57 58 59 61 66 67 68 69 67 65 62 61 62 64 64 66 67 70 71 71 71 71 71 71 71 71 70 69 69
39 35 32 31 31 29 41 42 36 42 44 46 46 48 50 52 54 56 58 58 58 60 61 63 66 67 68 69 66 65 64 62 62 63 64 65 66 68 69 69 71 72 72 71 72 71 70 67 67
35 33 30 30 28 30 41 35 31 42 47 50 49 53 54 56 55 57 59 60 60 61 62 63 67 67 68 68 67 67 64 63 63 64 64 65 66 68 69 71 71 71 70 70 72 71 70 69 69
32 31 34 33 36 32 32 36 36 42 44 45 48 50 54 57 59 59 59 63 64 65 65 63 66 68 69 68 68 67 63 66 65 67 66 67 69 70 70 70 71 71 71 71 71 70 68 67 67
31 35 30 34 29 28 30 34 31 36 39 47 46 51 55 59 58 58 59 61 62 68 70 68 69 69 69 68 68 68 68 69 69 67 66 70 69 69 69 69 69 69 69 69 69 68 67 66 66
32 30 35 34 32 25 26 26 38 37 42 45 47 54 55 58 58 58 60 65 69 70 71 71 71 71 70 69 69 69 69 68 67 67 69 70 69 69 68 67 67 67 67 68 67 65 66 66 66
31 26 30 19 27 33 32 27 35 39 42 47 49 55 55 57 60 58 60 67 69 70 70 70 69 69 69 69 69 69 69 69 68 68 68 69 68 68 68 68 67 66 67 67 66 66 66 65 65
Wind_Speed
19 13 7 2 0 2 5 6 6 12 9 3 12 4 3 4 0 1 10 12 23 21 20 18 19 19 17 17 15 14 14 13 14 13 12 11 9 8 7 7 6 5 6 7 8 9 9 10 11
16 12 2 1 2 4 6 5 12 10 5 7 7 2 0 3 4 11 16 21 23 22 21 19 18 18 17 16 14 14 13 12 12 12 11 11 9 9 8 9 9 7 6 7 8 10 9 9 10
13 2 1 2 3 5 5 10 13 4 7 14 5 5 2 3 6 21 13 23 22 20 19 19 18 17 17 15 14 14 12 11 11 11 11 10 10 11 9 9 10 8 7 8 9 10 10 9 8
4 1 1 4 7 3 8 12 13 5 3 4 7 5 5 2 15 8 24 22 21 19 19 20 19 18 16 14 12 13 11 10 10 10 9 8 9 10 10 10 10 8 8 8 8 9 9 8 7
1 1 3 3 3 2 6 8 5 3 1 4 2 4 6 2 9 21 24 21 21 19 17 19 17 17 15 14 13 12 11 10 10 9 8 8 8 9 8 8 8 8 8 7 8 8 7 6 5
1 0 4 5 3 1 4 14 5 3 4 7 8 8 3 6 19 24 22 20 19 19 18 17 15 16 15 14 13 10 12 10 11 10 9 8 8 6 6 6 7 6 7 8 6 6 5 6 5
2 2 3 1 2 2 6 13 5 6 6 5 11 6 6 11 18 22 20 18 18 17 16 16 16 15 14 13 13 11 11 11 9 9 9 9 8 8 7 6 5 4 4 4 5 6 5 5 5
1 1 2 1 2 1 6 7 6 9 4 12 8 6 9 15 21 20 18 18 17 16 16 16 15 15 15 14 14 13 12 11 11 10 9 9 8 8 7 5 4 5 4 4 4 4 5 6 7
2 0 2 3 4 2 4 4 5 2 13 4 4 6 14 26 23 22 19 17 17 16 17 16 15 13 13 11 12 12 12 12 10 9 8 7 5 3 4 2 3 5 6 6 6 6 6 8 10
2 1 3 2 1 2 3 5 10 4 10 4 12 17 26 25 24 25 23 21 21 20 19 16 15 14 13 11 10 11 10 10 8 7 6 4 3 3 3 3 4 5 8 10 8 8 9 10 8
2 1 3 3 1 3 5 8 6 9 5 6 14 25 25 24 23 23 23 22 23 20 17 17 16 14 13 12 11 9 10 9 9 8 6 5 4 4 3 3 4 6 6 6 7 7 9 9 10
1 2 2 2 3 2 3 7 5 7 9 5 24 29 26 25 24 23 22 21 20 20 19 18 17 15 14 12 9 7 9 10 8 6 6 6 7 7 5 5 6 5 7 8 9 9 9 11 11
2 2 1 1 5 6 2 6 3 6 4 16 22 24 24 23 22 20 18 17 17 19 19 19 18 16 15 14 9 10 9 11 10 10 9 8 7 8 6 7 7 7 7 9 9 9 10 10 12
3 3 2 2 3 4 5 4 1 3 13 18 22 22 21 22 22 18 19 20 20 19 19 18 18 17 16 15 13 11 12 11 8 9 10 11 10 10 10 10 10 9 8 8 10 10 10 10 9
3 2 3 1 2 3 4 3 1 11 14 18 18 18 18 19 19 23 24 23 22 19 17 19 18 18 18 17 16 14 12 12 13 11 10 11 12 13 12 11 11 10 9 9 8 10 10 10 9
2 1 2 2 3 1 4 3 2 13 15 15 16 17 18 20 24 22 20 20 19 19 19 18 17 19 20 19 16 15 13 13 13 10 13 14 15 14 12 13 12 10 8 9 8 10 12 12 12
3 6 3 2 3 3 6 3 7 14 13 13 16 17 18 19 21 22 22 22 21 20 20 20 20 20 19 18 15 14 13 13 14 11 11 11 14 15 14 12 12 12 11 10 10 11 10 13 13
9 8 3 4 2 7 4 7 9 16 15 15 16 17 19 23 25 24 23 22 21 21 21 20 20 20 18 14 14 12 13 14 12 12 12 9 15 16 17 13 12 12 12 12 13 14 11 12 13
1 4 2 2 4 3 7 9 12 17 17 18 17 18 19 23 25 20 21 22 19 19 21 22 21 19 16 15 12 14 16 13 13 11 11 15 13 12 13 12 11 11 14 15 14 11 13 13 13
3 4 4 3 4 3 4 12 10 18 23 22 21 22 24 23 22 21 22 21 21 21 22 20 21 19 19 15 12 9 4 6 10 6 12 13 12 9 12 14 15 15 15 16 16 14 12 12 9
3 6 4 4 6 2 6 6 8 14 19 18 23 24 23 24 25 24 22 23 22 23 22 21 20 19 17 15 7 5 6 6 7 8 8 10 11 13 15 15 15 16 16 17 14 10 11 10 7
7 8 3 3 2 4 4 6 5 11 18 24 22 24 27 26 24 21 22 21 22 24 19 19 18 15 13 11 9 12 8 3 1 3 8 10 12 10 13 16 17 16 14 14 11 10 12 12 11
3 5 2 3 1 4 2 4 4 0 10 21 25 27 25 24 21 23 23 23 23 20 18 13 11 14 14 15 16 16 9 3 7 5 1 9 10 6 9 12 13 14 14 13 11 13 14 11 9
9 5 4 1 2 4 4 3 5 6 6 5 10 17 18 17 18 18 16 16 17 12 10 10 15 16 18 20 22 16 12 9 7 4 4 3 9 8 7 9 12 13 14 14 13 13 14 11 10
6 4 5 3 2 4 4 4 13 10 8 7 10 6 4 8 12 12 11 12 12 7 7 11 16 16 18 21 19 12 12 10 10 5 1 5 10 8 8 11 10 10 11 10 10 14 14 11 8
7 6 5 4 3 6 0 5 6 3 1 5 7 4 1 1 4 7 6 6 5 7 11 13 17 19 21 23 22 19 17 10 8 5 3 1 8 7 12 11 12 11 11 7 4 5 3 4 7
4 7 2 4 1 7 3 7 15 10 8 12 9 5 1 4 7 9 9 10 12 13 11 14 16 19 23 24 23 21 17 4 5 1 2 2 4 6 7 7 5 5 6 4 2 3 1 1 4
5 11 3 2 6 9 6 7 12 15 11 5 8 5 6 10 10 11 13 13 10 11 10 12 15 21 25 27 22 12 7 7 3 4 2 5 3 1 3 5 7 6 6 5 4 3 2 1 4
6 5 2 2 3 9 12 11 9 12 11 7 8 2 8 10 11 12 13 12 12 12 13 15 15 16 17 16 13 8 6 5 4 1 2 3 4 4 6 6 6 7 6 5 6 5 5 4 3
5 9 10 10 5 3 4 17 1 9 8 7 10 7 7 7 10 13 13 13 12 15 16 17 17 18 17 16 14 11 10 10 11 9 7 6 6 6 5 6 7 8 8 7 7 7 9 9 8
Wind_Direction
143 145 149 206 120 65 86 66 95 110 140 135 161 230 209 47 54 43 149 150 144 144 148 148 138 132 131 126 126 124 126 128 131 130 132 137 143 151 154 160 150 125 117 122 123 112 108 108 114
145 148 162 305 42 62 76 42 98 51 146 125 152 131 72 80 66 127 143 154 147 143 146 146 135 136 136 136 136 131 132 132 131 136 136 143 147 145 149 153 160 147 126 119 119 117 113 116 121
154 137 305 39 57 48 60 91 109 141 136 151 162 89 31 37 116 143 143 151 147 144 146 141 140 141 143 147 144 138 137 135 140 140 147 151 159 145 141 133 140 133 132 127 123 128 126 129 129
160 116 97 46 56 56 84 118 109 69 18 169 126 82 79 55 147 149 150 152 149 148 148 143 148 149 150 154 149 143 138 139 143 142 143 149 141 140 142 141 139 136 133 127 129 129 130 137 136
207 122 49 71 47 74 106 136 148 94 27 120 129 98 104 355 136 145 152 156 153 152 154 152 154 155 155 159 153 150 151 151 147 150 150 147 144 145 144 141 137 141 140 141 142 139 141 135 141
274 197 29 42 7 53 131 159 144 203 163 130 117 113 79 136 140 153 157 158 157 155 157 153 160 162 160 165 157 166 167 164 171 161 161 157 150 140 151 151 151 160 162 146 143 147 156 154 161
265 108 65 96 13 322 120 159 200 155 155 154 148 105 127 159 152 157 159 158 160 159 161 161 167 166 164 171 171 172 173 167 166 171 170 166 160 162 166 174 175 175 176 167 178 171 165 166 178
236 51 125 207 113 14 124 131 158 158 109 128 150 171 174 174 159 158 162 162 165 170 170 173 175 172 174 178 182 183 179 177 186 186 186 181 184 176 180 183 212 212 205 217 225 217 205 199 206
168 276 358 157 167 161 155 134 159 101 139 109 357 147 146 154 155 157 163 171 173 181 182 183 184 183 177 184 190 189 190 192 188 195 203 201 216 192 193 174 258 266 267 251 245 239 237 239 234
207 40 10 21 160 232 192 161 156 161 155 89 79 109 134 150 162 166 174 181 184 189 189 189 193 193 189 193 197 200 202 194 201 205 212 204 209 214 213 240 258 244 300 268 264 261 259 258 248
140 353 124 86 312 237 228 170 158 156 212 197 156 147 150 159 171 177 183 188 190 191 191 197 197 200 199 201 203 206 203 209 215 219 221 218 212 222 237 269 275 287 295 274 263 255 260 259 263
143 104 63 104 24 130 177 164 147 165 201 203 158 159 158 168 176 185 188 192 195 197 199 200 203 205 208 208 206 202 210 216 225 221 227 225 228 217 229 248 261 269 247 261 258 256 253 256 259
98 78 172 206 37 55 198 203 172 176 73 136 152 162 168 175 183 188 193 198 205 206 204 207 205 208 213 215 209 213 219 223 229 230 226 225 232 232 234 255 266 273 261 257 263 252 246 253 256
68 154 197 231 74 56 163 124 121 135 130 140 160 173 174 180 184 190 197 201 207 211 210 209 212 211 212 218 217 225 230 235 229 227 232 228 232 241 246 255 261 266 260 265 261 251 255 261 260
106 222 172 318 97 84 151 170 203 156 150 152 170 179 186 190 189 200 200 204 205 209 211 209 212 214 215 217 220 222 223 227 231 225 224 233 243 243 251 258 262 268 268 260 259 260 260 259 257
47 73 340 48 178 33 189 250 149 168 161 162 178 189 193 196 206 209 210 215 213 216 213 213 210 214 215 219 219 226 229 232 238 229 235 237 241 246 252 249 256 263 271 264 257 254 252 259 261
18 341 300 315 206 152 199 260 194 183 186 173 180 195 207 211 214 217 219 218 219 217 218 217 213 217 217 218 221 230 240 242 245 239 234 245 258 251 250 245 250 253 260 245 245 257 250 267 265
322 324 296 269 207 213 214 243 193 196 199 198 189 198 211 220 222 218 223 224 224 223 219 218 217 217 212 214 217 225 236 244 247 246 240 221 233 249 246 242 251 250 258 252 241 250 253 262 268
360 301 273 230 189 215 251 262 216 204 214 211 209 210 213 222 229 224 225 228 224 226 227 222 217 214 201 207 213 230 236 241 248 238 237 239 239 238 232 249 252 251 255 253 255 258 263 260 259
223 243 237 222 176 229 283 266 232 211 220 223 216 216 218 222 229 233 233 230 226 226 225 223 220 211 204 208 212 222 239 262 269 268 265 248 255 241 246 251 255 250 255 253 247 240 249 264 263
238 242 231 320 161 172 294 275 233 222 227 236 237 237 233 225 224 221 228 230 232 227 222 219 216 208 204 201 182 77 45 6 10 352 300 275 253 241 251 250 251 254 249 251 252 245 222 245 270
278 235 236 254 254 317 342 303 256 219 230 231 237 232 237 233 230 229 222 219 222 228 224 219 210 194 194 172 140 115 113 114 163 343 319 311 297 282 271 262 254 247 246 251 248 227 233 217 249
308 117 162 238 266 296 24 274 270 164 248 244 235 236 237 243 241 239 234 233 227 227 223 214 180 161 156 146 139 119 111 186 225 183 18 355 330 303 289 281 267 261 257 256 250 244 228 205 217
144 118 97 70 300 267 18 310 270 216 231 211 233 241 236 238 243 249 255 255 247 231 209 174 157 156 152 144 135 144 148 243 254 165 62 360 324 314 305 272 263 252 249 249 249 224 234 217 218
203 229 281 251 227 313 5 260 268 263 254 247 280 259 221 230 231 238 245 246 242 217 169 163 151 154 155 146 133 158 207 243 272 133 277 219 266 288 296 302 277 257 244 247 250 239 232 225 227
200 227 251 290 310 324 115 253 288 264 243 224 243 247 315 194 186 181 191 181 164 144 162 162 162 164 155 155 169 191 211 200 242 230 246 316 267 291 300 307 282 281 290 309 296 271 289 287 256
185 213 295 214 183 284 285 276 284 275 260 242 253 262 22 98 118 124 111 111 116 116 142 172 163 150 158 169 185 203 229 218 247 131 28 227 284 303 353 344 346 351 37 37 42 88 224 305 325
225 142 176 212 254 269 267 280 273 301 302 212 242 234 134 107 118 114 105 113 117 117 112 127 144 159 170 176 191 209 225 260 250 130 259 262 214 91 23 38 48 58 62 73 89 102 104 27 298
167 192 100 160 236 269 283 280 224 268 289 220 215 198 148 141 135 129 117 118 122 112 111 115 126 137 150 167 181 206 202 207 161 131 163 116 102 85 83 71 67 63 67 70 81 76 57 22 339
227 227 196 241 235 233 286 273 178 265 281 222 196 160 151 146 157 157 140 129 122 119 120 131 130 127 130 130 125 113 114 124 128 134 116 105 107 108 107 96 87 75 64 65 66 64 57 50 46